QPF
0.02 0.04 0.08 0.09 0.05 0.03 0.02 0.01 0.01 0.01 0.01 0.01 0.02 0.02 0.02 0.03 0.03 0.02 0.02 0.03 0.02 0.02 0.02 0.01 0.01 0.02 0.02 0.02 0.02 0.03 0.03 0.03 0.03 0.03 0.04 0.06 0.08 0.10 0.10 0.07 0.05 0.04 0.04
0.03 0.04 0.05 0.04 0.03 0.03 0.02 0.01 0.01 0.01 0.01 0.01 0.02 0.01 0.01 0.02 0.03 0.02 0.02 0.02 0.02 0.02 0.02 0.02 0.01 0.01 0.01 0.02 0.03 0.03 0.03 0.03 0.03 0.04 0.05 0.07 0.10 0.09 0.07 0.06 0.06 0.06 0.05
0.02 0.02 0.03 0.02 0.02 0.03 0.03 0.02 0.02 0.02 0.01 0.01 0.01 0.02 0.02 0.03 0.02 0.01 0.02 0.02 0.02 0.02 0.03 0.02 0.02 0.02 0.03 0.03 0.04 0.03 0.03 0.03 0.04 0.04 0.06 0.09 0.12 0.11 0.11 0.10 0.08 0.09 0.08
0.02 0.03 0.02 0.01 0.02 0.03 0.03 0.05 0.03 0.02 0.02 0.01 0.01 0.01 0.01 0.02 0.01 0.01 0.02 0.02 0.02 0.02 0.02 0.02 0.02 0.02 0.02 0.03 0.03 0.03 0.04 0.04 0.04 0.04 0.05 0.08 0.12 0.13 0.12 0.11 0.11 0.12 0.13
0.02 0.02 0.02 0.02 0.02 0.02 0.04 0.04 0.02 0.02 0.02 0.02 0.02 0.02 0.02 0.02 0.02 0.02 0.02 0.01 0.01 0.01 0.01 0.02 0.01 0.01 0.01 0.02 0.01 0.01 0.02 0.03 0.02 0.03 0.04 0.05 0.06 0.07 0.09 0.10 0.10 0.12 0.12
0.02 0.02 0.03 0.03 0.03 0.04 0.04 0.03 0.03 0.02 0.02 0.02 0.02 0.03 0.02 0.02 0.03 0.03 0.02 0.01 0.01 0.00 0.01 0.01 0.01 0.02 0.02 0.02 0.03 0.03 0.03 0.03 0.03 0.03 0.04 0.04 0.04 0.04 0.06 0.09 0.10 0.10 0.09
0.03 0.03 0.05 0.06 0.05 0.04 0.03 0.03 0.02 0.02 0.03 0.03 0.03 0.03 0.03 0.03 0.03 0.02 0.02 0.01 0.01 0.01 0.01 0.01 0.01 0.01 0.02 0.02 0.02 0.03 0.03 0.03 0.03 0.03 0.02 0.02 0.03 0.05 0.07 0.07 0.06 0.07 0.07
0.02 0.03 0.04 0.04 0.04 0.03 0.03 0.02 0.02 0.02 0.02 0.02 0.02 0.02 0.02 0.03 0.03 0.02 0.02 0.03 0.02 0.02 0.02 0.01 0.01 0.01 0.02 0.02 0.02 0.01 0.01 0.01 0.02 0.01 0.01 0.04 0.06 0.06 0.06 0.05 0.04 0.04 0.03
0.03 0.03 0.03 0.03 0.03 0.03 0.02 0.02 0.02 0.01 0.01 0.01 0.01 0.02 0.01 0.01 0.02 0.03 0.03 0.03 0.02 0.03 0.03 0.03 0.03 0.02 0.03 0.03 0.02 0.01 0.01 0.01 0.01 0.01 0.01 0.02 0.03 0.04 0.03 0.02 0.03 0.02 0.02
0.03 0.02 0.03 0.04 0.03 0.02 0.02 0.02 0.01 0.01 0.01 0.01 0.01 0.01 0.01 0.01 0.01 0.02 0.04 0.03 0.03 0.03 0.03 0.03 0.03 0.02 0.02 0.02 0.01 0.01 0.01 0.00 0.01 0.01 0.01 0.01 0.01 0.02 0.02 0.01 0.01 0.01 0.01
0.04 0.03 0.03 0.03 0.03 0.03 0.03 0.03 0.03 0.03 0.02 0.02 0.01 0.01 0.01 0.01 0.01 0.03 0.04 0.04 0.04 0.03 0.02 0.02 0.01 0.02 0.01 0.01 0.01 0.01 0.00 0.01 0.02 0.02 0.01 0.01 0.01 0.01 0.01 0.01 0.01 0.01 0.01
0.04 0.03 0.03 0.03 0.02 0.02 0.02 0.02 0.03 0.02 0.02 0.02 0.01 0.01 0.01 0.01 0.01 0.02 0.03 0.03 0.04 0.03 0.03 0.03 0.02 0.02 0.02 0.01 0.01 0.01 0.01 0.02 0.02 0.02 0.02 0.02 0.02 0.02 0.03 0.03 0.02 0.02 0.01
0.03 0.02 0.02 0.02 0.01 0.02 0.03 0.02 0.02 0.02 0.01 0.02 0.01 0.02 0.02 0.01 0.01 0.02 0.02 0.02 0.02 0.03 0.03 0.03 0.03 0.03 0.02 0.02 0.02 0.03 0.03 0.02 0.02 0.02 0.02 0.02 0.03 0.04 0.05 0.04 0.03 0.03 0.03
0.03 0.02 0.02 0.01 0.01 0.02 0.02 0.03 0.02 0.03 0.03 0.03 0.02 0.02 0.02 0.02 0.02 0.02 0.02 0.02 0.03 0.03 0.04 0.04 0.03 0.03 0.03 0.03 0.03 0.04 0.04 0.04 0.04 0.03 0.03 0.03 0.04 0.04 0.04 0.04 0.04 0.04 0.03
0.02 0.02 0.02 0.02 0.02 0.02 0.02 0.03 0.04 0.04 0.04 0.04 0.04 0.03 0.03 0.02 0.02 0.02 0.02 0.02 0.04 0.04 0.04 0.03 0.03 0.03 0.02 0.02 0.03 0.05 0.06 0.07 0.06 0.06 0.05 0.04 0.04 0.03 0.04 0.04 0.05 0.05 0.04
0.02 0.02 0.02 0.02 0.02 0.03 0.03 0.03 0.05 0.05 0.05 0.05 0.04 0.04 0.04 0.04 0.04 0.02 0.02 0.02 0.03 0.03 0.03 0.03 0.03 0.02 0.02 0.02 0.02 0.02 0.03 0.04 0.05 0.05 0.05 0.04 0.03 0.03 0.03 0.03 0.03 0.03 0.04
0.02 0.02 0.02 0.02 0.02 0.03 0.04 0.04 0.04 0.04 0.05 0.05 0.04 0.04 0.04 0.04 0.04 0.03 0.03 0.02 0.02 0.02 0.02 0.03 0.03 0.03 0.03 0.03 0.03 0.03 0.02 0.02 0.02 0.02 0.02 0.03 0.03 0.03 0.03 0.03 0.04 0.04 0.04
0.02 0.03 0.02 0.02 0.02 0.04 0.05 0.05 0.04 0.04 0.04 0.04 0.03 0.02 0.02 0.03 0.02 0.02 0.02 0.02 0.02 0.01 0.01 0.02 0.02 0.02 0.02 0.02 0.01 0.01 0.01 0.01 0.01 0.01 0.02 0.02 0.02 0.03 0.03 0.03 0.03 0.03 0.03
0.04 0.04 0.04 0.03 0.03 0.04 0.06 0.07 0.06 0.05 0.04 0.04 0.02 0.02 0.02 0.02 0.01 0.01 0.01 0.01 0.00 0.01 0.01 0.01 0.02 0.02 0.02 0.01 0.01 0.01 0.01 0.01 0.01 0.01 0.01 0.01 0.01 0.01 0.01 0.02 0.02 0.02 0.02
0.05 0.04 0.03 0.02 0.03 0.03 0.03 0.04 0.04 0.03 0.03 0.04 0.04 0.03 0.02 0.02 0.02 0.02 0.01 0.01 0.01 0.01 0.01 0.01 0.01 0.01 0.01 0.01 0.01 0.01 0.01 0.01 0.01 0.01 0.01 0.01 0.01 0.01 0.01 0.01 0.01 0.01 0.01
0.05 0.03 0.01 0.01 0.01 0.02 0.02 0.02 0.02 0.02 0.02 0.02 0.02 0.02 0.02 0.02 0.02 0.01 0.01 0.01 0.01 0.01 0.01 0.01 0.02 0.01 0.01 0.01 0.01 0.01 0.01 0.01 0.01 0.01 0.01 0.01 0.01 0.01 0.01 0.01 0.01 0.01 0.01
0.03 0.02 0.01 0.01 0.01 0.01 0.01 0.01 0.01 0.02 0.02 0.02 0.02 0.02 0.02 0.02 0.02 0.01 0.01 0.01 0.01 0.01 0.02 0.02 0.02 0.02 0.01 0.01 0.01 0.01 0.01 0.01 0.01 0.01 0.01 0.01 0.01 0.02 0.02 0.02 0.02 0.02 0.02
0.03 0.02 0.01 0.01 0.01 0.01 0.00 0.00 0.01 0.01 0.01 0.01 0.01 0.02 0.02 0.01 0.02 0.02 0.02 0.02 0.02 0.02 0.02 0.02 0.02 0.03 0.02 0.01 0.01 0.01 0.01 0.01 0.01 0.01 0.01 0.01 0.02 0.02 0.02 0.02 0.02 0.03 0.03
0.02 0.02 0.01 0.01 0.00 0.00 0.00 0.00 0.01 0.00 0.01 0.01 0.01 0.01 0.01 0.01 0.01 0.02 0.03 0.03 0.02 0.02 0.03 0.03 0.02 0.02 0.02 0.01 0.01 0.01 0.01 0.01 0.01 0.01 0.01 0.01 0.02 0.02 0.02 0.03 0.03 0.03 0.03
0.02 0.01 0.01 0.01 0.00 0.00 0.01 0.01 0.01 0.01 0.01 0.01 0.01 0.01 0.01 0.01 0.01 0.01 0.02 0.02 0.02 0.02 0.02 0.02 0.03 0.03 0.02 0.02 0.01 0.01 0.01 0.01 0.02 0.02 0.02 0.02 0.03 0.03 0.03 0.03 0.03 0.03 0.02
0.02 0.02 0.01 0.01 0.01 0.01 0.01 0.01 0.01 0.00 0.00 0.00 0.00 0.01 0.01 0.01 0.01 0.02 0.02 0.03 0.03 0.03 0.03 0.04 0.04 0.03 0.02 0.02 0.01 0.01 0.02 0.02 0.02 0.03 0.03 0.03 0.03 0.02 0.02 0.02 0.01 0.01 0.01
MSLP
1015.76 1016.28 1016.84 1017.41 1017.92 1018.33 1018.63 1018.81 1018.90 1018.93 1018.93 1018.95 1019.00 1019.10 1019.22 1019.38 1019.53 1019.68 1019.80 1019.91 1020.01 1020.11 1020.24 1020.41 1020.62 1020.90 1021.23 1021.62 1022.04 1022.49 1022.94 1023.37 1023.77 1024.12 1024.40 1024.60 1024.72 1024.76 1024.72 1024.62 1024.48 1024.32 1024.15
1015.96 1016.49 1017.05 1017.60 1018.10 1018.50 1018.80 1018.99 1019.09 1019.12 1019.14 1019.17 1019.23 1019.33 1019.48 1019.65 1019.83 1020.01 1020.17 1020.30 1020.42 1020.53 1020.64 1020.77 1020.94 1021.15 1021.42 1021.74 1022.12 1022.53 1022.96 1023.40 1023.82 1024.19 1024.50 1024.73 1024.88 1024.94 1024.92 1024.84 1024.72 1024.58 1024.44
1016.19 1016.73 1017.28 1017.82 1018.30 1018.68 1018.97 1019.16 1019.26 1019.32 1019.35 1019.40 1019.47 1019.59 1019.76 1019.95 1020.16 1020.36 1020.54 1020.70 1020.83 1020.94 1021.04 1021.13 1021.25 1021.41 1021.62 1021.88 1022.20 1022.57 1022.98 1023.40 1023.81 1024.20 1024.52 1024.76 1024.92 1024.99 1024.98 1024.91 1024.80 1024.69 1024.58
1016.39 1016.95 1017.50 1018.02 1018.47 1018.84 1019.11 1019.30 1019.42 1019.50 1019.56 1019.63 1019.74 1019.88 1020.06 1020.27 1020.49 1020.70 1020.90 1021.07 1021.20 1021.30 1021.38 1021.45 1021.53 1021.64 1021.78 1021.99 1022.25 1022.58 1022.94 1023.33 1023.72 1024.09 1024.41 1024.65 1024.81 1024.88 1024.88 1024.83 1024.74 1024.65 1024.58
1016.52 1017.10 1017.65 1018.15 1018.59 1018.94 1019.21 1019.41 1019.55 1019.66 1019.77 1019.88 1020.01 1020.18 1020.37 1020.58 1020.80 1021.01 1021.20 1021.35 1021.48 1021.56 1021.63 1021.67 1021.72 1021.79 1021.89 1022.04 1022.25 1022.52 1022.84 1023.18 1023.53 1023.87 1024.16 1024.39 1024.54 1024.62 1024.63 1024.60 1024.55 1024.50 1024.47
1016.51 1017.12 1017.68 1018.18 1018.61 1018.96 1019.24 1019.46 1019.65 1019.80 1019.95 1020.11 1020.28 1020.46 1020.66 1020.86 1021.05 1021.24 1021.40 1021.53 1021.64 1021.71 1021.75 1021.78 1021.81 1021.85 1021.92 1022.04 1022.20 1022.41 1022.67 1022.96 1023.26 1023.55 1023.80 1024.01 1024.15 1024.23 1024.26 1024.26 1024.25 1024.25 1024.27
1016.37 1017.01 1017.59 1018.09 1018.51 1018.87 1019.18 1019.45 1019.68 1019.90 1020.10 1020.31 1020.50 1020.70 1020.89 1021.07 1021.23 1021.37 1021.50 1021.60 1021.67 1021.73 1021.76 1021.79 1021.82 1021.85 1021.91 1021.99 1022.12 1022.29 1022.49 1022.72 1022.96 1023.19 1023.40 1023.57 1023.69 1023.78 1023.83 1023.86 1023.89 1023.94 1024.02
1016.11 1016.78 1017.36 1017.87 1018.31 1018.69 1019.04 1019.35 1019.65 1019.93 1020.19 1020.44 1020.66 1020.86 1021.03 1021.18 1021.30 1021.40 1021.48 1021.55 1021.60 1021.65 1021.69 1021.73 1021.77 1021.82 1021.88 1021.96 1022.06 1022.19 1022.35 1022.52 1022.69 1022.87 1023.02 1023.16 1023.26 1023.34 1023.40 1023.46 1023.53 1023.62 1023.75
1015.76 1016.44 1017.04 1017.56 1018.02 1018.43 1018.82 1019.19 1019.55 1019.88 1020.20 1020.48 1020.73 1020.92 1021.08 1021.19 1021.27 1021.33 1021.37 1021.42 1021.46 1021.52 1021.58 1021.66 1021.73 1021.81 1021.89 1021.98 1022.07 1022.18 1022.29 1022.41 1022.53 1022.65 1022.75 1022.84 1022.92 1022.98 1023.05 1023.12 1023.21 1023.33 1023.48
1015.36 1016.05 1016.65 1017.19 1017.67 1018.11 1018.55 1018.97 1019.37 1019.76 1020.12 1020.43 1020.68 1020.88 1021.01 1021.10 1021.15 1021.17 1021.20 1021.24 1021.30 1021.38 1021.48 1021.60 1021.72 1021.84 1021.96 1022.07 1022.16 1022.25 1022.33 1022.41 1022.48 1022.55 1022.61 1022.66 1022.71 1022.76 1022.81 1022.87 1022.97 1023.09 1023.25
1014.96 1015.65 1016.25 1016.79 1017.29 1017.77 1018.24 1018.70 1019.15 1019.57 1019.95 1020.28 1020.53 1020.72 1020.84 1020.91 1020.94 1020.96 1020.99 1021.04 1021.13 1021.25 1021.40 1021.57 1021.74 1021.91 1022.06 1022.19 1022.29 1022.37 1022.43 1022.48 1022.52 1022.55 1022.57 1022.59 1022.61 1022.64 1022.67 1022.72 1022.80 1022.91 1023.05
1014.59 1015.26 1015.85 1016.40 1016.92 1017.42 1017.91 1018.40 1018.86 1019.30 1019.69 1020.02 1020.27 1020.45 1020.56 1020.63 1020.66 1020.69 1020.75 1020.83 1020.96 1021.13 1021.33 1021.54 1021.76 1021.96 1022.14 1022.28 1022.39 1022.46 1022.51 1022.54 1022.56 1022.56 1022.57 1022.57 1022.57 1022.58 1022.59 1022.62 1022.68 1022.75 1022.86
1014.23 1014.89 1015.48 1016.03 1016.56 1017.07 1017.57 1018.07 1018.54 1018.97 1019.35 1019.67 1019.91 1020.08 1020.19 1020.26 1020.31 1020.37 1020.45 1020.58 1020.76 1020.97 1021.21 1021.46 1021.70 1021.92 1022.11 1022.25 1022.36 1022.42 1022.46 1022.48 1022.49 1022.49 1022.49 1022.49 1022.49 1022.49 1022.50 1022.51 1022.54 1022.58 1022.65
1013.89 1014.53 1015.12 1015.68 1016.21 1016.72 1017.22 1017.71 1018.16 1018.57 1018.92 1019.21 1019.44 1019.59 1019.71 1019.79 1019.87 1019.97 1020.09 1020.26 1020.47 1020.72 1020.98 1021.24 1021.49 1021.71 1021.88 1022.01 1022.10 1022.16 1022.19 1022.21 1022.23 1022.24 1022.26 1022.28 1022.30 1022.31 1022.31 1022.32 1022.33 1022.34 1022.37
1013.53 1014.16 1014.75 1015.31 1015.85 1016.36 1016.85 1017.31 1017.73 1018.10 1018.41 1018.67 1018.86 1019.01 1019.12 1019.22 1019.33 1019.45 1019.62 1019.82 1020.06 1020.32 1020.58 1020.84 1021.06 1021.25 1021.40 1021.50 1021.57 1021.61 1021.65 1021.68 1021.72 1021.76 1021.81 1021.87 1021.92 1021.96 1021.98 1021.99 1021.99 1022.00 1022.01
1013.13 1013.76 1014.36 1014.92 1015.46 1015.96 1016.42 1016.84 1017.22 1017.54 1017.80 1018.01 1018.17 1018.31 1018.42 1018.53 1018.66 1018.82 1019.01 1019.23 1019.48 1019.73 1019.97 1020.20 1020.39 1020.53 1020.64 1020.71 1020.76 1020.80 1020.84 1020.89 1020.96 1021.05 1021.15 1021.25 1021.34 1021.42 1021.47 1021.50 1021.52 1021.52 1021.52
1012.70 1013.33 1013.92 1014.48 1015.01 1015.49 1015.92 1016.30 1016.62 1016.89 1017.09 1017.26 1017.39 1017.50 1017.61 1017.73 1017.87 1018.05 1018.25 1018.48 1018.72 1018.95 1019.16 1019.34 1019.48 1019.59 1019.66 1019.70 1019.73 1019.77 1019.83 1019.92 1020.03 1020.17 1020.32 1020.47 1020.61 1020.73 1020.81 1020.87 1020.90 1020.92 1020.93
1012.25 1012.86 1013.44 1013.99 1014.49 1014.94 1015.33 1015.65 1015.92 1016.13 1016.29 1016.41 1016.51 1016.61 1016.71 1016.83 1016.98 1017.16 1017.36 1017.58 1017.80 1018.01 1018.18 1018.32 1018.42 1018.49 1018.53 1018.56 1018.60 1018.66 1018.75 1018.87 1019.03 1019.22 1019.42 1019.62 1019.79 1019.94 1020.06 1020.14 1020.19 1020.22 1020.25
1011.79 1012.36 1012.92 1013.43 1013.89 1014.30 1014.64 1014.92 1015.13 1015.29 1015.41 1015.49 1015.57 1015.65 1015.74 1015.86 1016.01 1016.19 1016.39 1016.59 1016.78 1016.95 1017.10 1017.21 1017.28 1017.33 1017.36 1017.41 1017.46 1017.56 1017.68 1017.86 1018.06 1018.29 1018.53 1018.76 1018.96 1019.13 1019.26 1019.35 1019.41 1019.47 1019.52
1011.37 1011.88 1012.37 1012.83 1013.24 1013.59 1013.88 1014.10 1014.27 1014.39 1014.47 1014.54 1014.60 1014.67 1014.76 1014.88 1015.02 1015.19 1015.37 1015.55 1015.72 1015.86 1015.98 1016.07 1016.13 1016.19 1016.24 1016.31 1016.41 1016.55 1016.73 1016.95 1017.19 1017.45 1017.71 1017.95 1018.16 1018.33 1018.46 1018.55 1018.62 1018.68 1018.75
1011.02 1011.44 1011.84 1012.22 1012.56 1012.84 1013.07 1013.25 1013.38 1013.47 1013.54 1013.59 1013.64 1013.71 1013.80 1013.91 1014.05 1014.20 1014.36 1014.52 1014.66 1014.79 1014.89 1014.97 1015.05 1015.12 1015.21 1015.33 1015.48 1015.67 1015.90 1016.17 1016.45 1016.73 1016.99 1017.23 1017.42 1017.57 1017.68 1017.77 1017.83 1017.90 1017.98
1010.75 1011.05 1011.35 1011.63 1011.89 1012.10 1012.28 1012.41 1012.51 1012.59 1012.65 1012.70 1012.76 1012.83 1012.92 1013.03 1013.16 1013.29 1013.43 1013.56 1013.68 1013.78 1013.88 1013.96 1014.05 1014.16 1014.30 1014.47 1014.68 1014.92 1015.21 1015.50 1015.81 1016.10 1016.35 1016.57 1016.74 1016.86 1016.95 1017.01 1017.07 1017.14 1017.24
1010.57 1010.75 1010.93 1011.11 1011.28 1011.42 1011.55 1011.65 1011.73 1011.80 1011.87 1011.93 1012.00 1012.08 1012.17 1012.28 1012.39 1012.50 1012.60 1012.70 1012.80 1012.88 1012.97 1013.06 1013.17 1013.31 1013.49 1013.71 1013.97 1014.27 1014.58 1014.91 1015.22 1015.51 1015.76 1015.95 1016.09 1016.18 1016.25 1016.29 1016.34 1016.42 1016.53
1010.47 1010.53 1010.61 1010.69 1010.78 1010.86 1010.95 1011.02 1011.10 1011.17 1011.24 1011.32 1011.40 1011.49 1011.58 1011.67 1011.76 1011.84 1011.92 1011.98 1012.04 1012.10 1012.18 1012.27 1012.39 1012.56 1012.77 1013.02 1013.32 1013.65 1013.99 1014.33 1014.64 1014.92 1015.15 1015.32 1015.44 1015.52 1015.56 1015.60 1015.65 1015.74 1015.86
1010.43 1010.39 1010.38 1010.39 1010.42 1010.46 1010.51 1010.57 1010.64 1010.72 1010.80 1010.89 1010.98 1011.07 1011.15 1011.23 1011.29 1011.34 1011.37 1011.40 1011.43 1011.46 1011.51 1011.59 1011.71 1011.89 1012.11 1012.38 1012.69 1013.04 1013.38 1013.72 1014.04 1014.30 1014.52 1014.68 1014.78 1014.85 1014.90 1014.94 1015.01 1015.10 1015.25
1010.44 1010.33 1010.26 1010.22 1010.21 1010.22 1010.25 1010.30 1010.37 1010.45 1010.54 1010.64 1010.73 1010.81 1010.88 1010.93 1010.97 1010.98 1010.98 1010.96 1010.95 1010.95 1010.97 1011.03 1011.14 1011.30 1011.52 1011.79 1012.09 1012.43 1012.77 1013.09 1013.39 1013.65 1013.85 1014.01 1014.11 1014.19 1014.25 1014.32 1014.40 1014.52 1014.68
Thickness
5775 5772 5768 5764 5762 5759 5756 5754 5751 5748 5746 5744 5742 5739 5737 5734 5732 5730 5727 5725 5722 5719 5717 5715 5713 5710 5708 5705 5702 5698 5694 5692 5686 5682 5681 5680 5679 5678 5676 5676 5674 5673 5671
5774 5770 5766 5763 5759 5756 5754 5752 5750 5746 5744 5742 5740 5737 5734 5732 5729 5727 5724 5722 5719 5716 5713 5711 5709 5707 5704 5701 5698 5694 5691 5688 5685 5679 5676 5674 5673 5672 5671 5669 5668 5666 5665
5773 5768 5764 5760 5757 5754 5752 5750 5747 5744 5741 5739 5737 5734 5731 5729 5727 5724 5721 5719 5715 5713 5710 5708 5705 5703 5700 5697 5694 5691 5687 5684 5681 5677 5672 5669 5668 5666 5664 5662 5661 5660 5658
5770 5765 5761 5758 5755 5752 5749 5746 5743 5740 5738 5735 5733 5730 5728 5726 5723 5720 5717 5715 5712 5709 5706 5704 5702 5699 5696 5693 5690 5686 5683 5679 5675 5672 5668 5665 5662 5660 5658 5655 5653 5652 5650
5767 5762 5758 5755 5752 5748 5745 5742 5739 5736 5734 5732 5729 5726 5724 5722 5719 5716 5713 5710 5707 5704 5702 5699 5697 5695 5693 5690 5687 5682 5679 5675 5671 5667 5663 5659 5656 5653 5651 5649 5647 5645 5642
5763 5759 5755 5751 5747 5743 5740 5736 5734 5731 5728 5726 5723 5721 5718 5716 5713 5711 5708 5704 5701 5699 5696 5694 5692 5690 5688 5685 5682 5679 5676 5671 5667 5663 5659 5655 5652 5649 5646 5644 5641 5639 5636
5759 5755 5750 5747 5742 5739 5736 5732 5728 5725 5723 5720 5717 5715 5712 5709 5707 5704 5702 5698 5696 5693 5691 5689 5687 5685 5683 5680 5677 5674 5670 5667 5664 5661 5656 5652 5648 5645 5642 5638 5635 5633 5630
5753 5749 5746 5742 5737 5733 5730 5726 5723 5720 5717 5714 5711 5709 5706 5703 5701 5698 5696 5693 5690 5688 5686 5684 5681 5679 5677 5674 5671 5668 5664 5661 5658 5655 5652 5649 5645 5641 5638 5634 5631 5627 5623
5747 5744 5741 5738 5733 5728 5724 5721 5718 5714 5711 5708 5706 5703 5700 5697 5694 5692 5690 5687 5684 5682 5681 5678 5676 5673 5671 5668 5665 5661 5658 5655 5652 5649 5646 5643 5640 5636 5632 5628 5624 5621 5618
5741 5739 5736 5732 5728 5724 5720 5716 5713 5710 5706 5703 5699 5696 5693 5690 5688 5686 5683 5681 5678 5676 5674 5671 5669 5667 5664 5661 5659 5655 5651 5648 5646 5643 5639 5636 5633 5630 5626 5623 5620 5616 5614
5735 5732 5730 5725 5722 5718 5714 5711 5707 5703 5699 5696 5693 5689 5687 5685 5682 5680 5677 5675 5672 5669 5667 5664 5662 5660 5657 5655 5652 5650 5647 5643 5639 5636 5633 5629 5626 5623 5620 5617 5614 5612 5609
5728 5725 5722 5719 5716 5712 5707 5703 5700 5696 5692 5688 5685 5683 5680 5678 5676 5674 5671 5669 5666 5663 5660 5658 5656 5654 5651 5649 5646 5643 5640 5636 5633 5630 5626 5623 5620 5617 5614 5612 5609 5606 5604
5721 5718 5715 5712 5708 5705 5701 5697 5693 5689 5685 5682 5679 5677 5675 5672 5669 5667 5665 5663 5660 5657 5654 5652 5650 5647 5645 5642 5639 5636 5633 5629 5626 5623 5620 5617 5614 5611 5608 5605 5603 5599 5597
5713 5709 5707 5704 5700 5697 5694 5691 5687 5683 5680 5676 5673 5671 5668 5665 5662 5660 5658 5656 5653 5650 5647 5644 5642 5639 5637 5634 5631 5628 5625 5622 5619 5616 5614 5611 5607 5604 5601 5598 5595 5592 5589
5705 5701 5698 5695 5691 5688 5686 5683 5681 5678 5675 5671 5668 5665 5662 5659 5657 5653 5651 5648 5646 5643 5640 5637 5635 5632 5629 5626 5623 5621 5617 5615 5612 5609 5606 5604 5601 5597 5594 5591 5587 5585 5582
5697 5693 5689 5686 5682 5680 5678 5674 5672 5670 5668 5664 5661 5658 5656 5655 5651 5648 5645 5642 5638 5635 5633 5631 5628 5625 5622 5619 5617 5613 5610 5607 5604 5602 5600 5597 5594 5591 5588 5585 5581 5579 5576
5690 5685 5682 5678 5675 5673 5671 5668 5665 5661 5659 5657 5654 5651 5650 5648 5644 5641 5638 5634 5631 5628 5626 5624 5621 5619 5616 5613 5610 5607 5604 5601 5598 5595 5593 5590 5587 5584 5581 5578 5575 5573 5571
5682 5678 5675 5671 5669 5666 5664 5661 5658 5655 5652 5650 5647 5645 5642 5640 5637 5634 5631 5628 5624 5621 5620 5618 5615 5613 5610 5607 5604 5601 5598 5595 5592 5589 5586 5583 5580 5578 5575 5572 5570 5567 5565
5674 5670 5667 5664 5661 5658 5655 5653 5650 5648 5645 5642 5639 5637 5634 5632 5628 5625 5622 5621 5619 5616 5613 5610 5608 5606 5603 5601 5598 5595 5592 5589 5586 5582 5579 5577 5574 5571 5569 5567 5564 5560 5558
5666 5664 5660 5657 5653 5650 5647 5645 5642 5640 5637 5634 5632 5630 5626 5624 5621 5618 5615 5614 5612 5609 5607 5604 5602 5600 5597 5594 5592 5588 5586 5583 5580 5576 5573 5570 5568 5565 5563 5561 5558 5556 5553
5658 5656 5653 5649 5646 5643 5640 5638 5635 5633 5630 5628 5625 5623 5620 5618 5616 5614 5611 5608 5606 5603 5601 5598 5595 5593 5590 5588 5585 5582 5579 5576 5573 5570 5567 5564 5561 5559 5557 5555 5552 5550 5548
5650 5647 5645 5642 5639 5636 5633 5631 5629 5626 5624 5621 5618 5616 5613 5611 5609 5608 5605 5603 5600 5597 5595 5592 5589 5587 5584 5581 5579 5576 5573 5570 5567 5564 5562 5558 5555 5553 5550 5548 5546 5543 5540
5641 5639 5637 5634 5631 5628 5626 5624 5621 5619 5617 5614 5612 5609 5607 5605 5603 5601 5599 5597 5594 5591 5588 5586 5584 5581 5578 5575 5573 5570 5568 5565 5562 5559 5556 5552 5549 5546 5544 5541 5539 5537 5534
5633 5631 5629 5626 5624 5621 5619 5616 5614 5612 5610 5608 5605 5603 5600 5598 5597 5595 5593 5590 5587 5585 5582 5580 5578 5576 5573 5570 5567 5564 5561 5559 5556 5552 5549 5546 5543 5540 5537 5535 5533 5530 5528
5624 5622 5621 5619 5617 5614 5612 5610 5607 5605 5603 5601 5598 5596 5594 5592 5590 5588 5586 5583 5580 5578 5575 5573 5570 5569 5566 5563 5561 5558 5555 5552 5549 5545 5542 5539 5536 5533 5530 5528 5526 5523 5520
5616 5615 5612 5611 5609 5607 5605 5603 5601 5598 5596 5593 5591 5588 5586 5584 5582 5580 5578 5575 5572 5570 5568 5566 5564 5562 5559 5557 5554 5551 5548 5545 5542 5538 5534 5531 5528 5525 5523 5520 5518 5515 5513